#timestamp,LO_Frequency,Hit,StdDev 
1583766015.8,286047002.7,N
1583766035.7,286047001.6,N
1583766055.5,286047001.4,N
1583766075.3,286047003.7,N
1583766095.2,286047003.8,N
1583766115.9,286047000.1,N
1583766135.7,286047000.3,N
1583766155.6,286047002.6,N
1583766175.4,286047003.5,N
1583766195.3,286047003.2,N
1583766215.1,286047001.9,N
1583766216.0,286047001.9,N
1583766235.8,286047002.6,N
1583766255.7,286047002.0,N
1583766275.5,286047004.2,N
1583766295.3,286047002.3,N
1583766315.2,286047002.4,N
1583766335.0,286047004.2,N
1583766335.9,286047004.2,N
1583766355.8,286047002.0,N
1583766375.6,286047002.1,N
1583766395.4,286047004.4,N
1583766415.3,286047004.2,N
1583766435.1,286047003.0,N
1583766455.9,286047003.9,N
1583766475.7,286047001.6,N
1583766495.5,286047005.5,Y
1583766515.4,286046999.8,P
1583766535.2,286047002.2,N
1583766555.1,286046998.5,N
1583766556.0,286046998.5,N
1583766575.8,286047001.0,N
1583766595.6,286047002.4,N
1583766615.5,286046999.7,N
1583766635.3,286046999.7,N
1583766655.1,286047000.0,N
1583766675.9,286047002.5,N
1583766695.7,286047001.7,N
1583766715.6,286047001.5,N
1583766735.4,286047002.7,N
1583766755.2,286047002.6,N
1583766775.1,286047002.3,N
1583766776.0,286047002.3,N
1583766795.8,286046998.2,N
1583766815.7,286047002.1,N
1583766835.5,286047002.5,N
1583766855.3,286047002.2,N
1583766875.2,286047004.4,N
1583766895.0,286047004.4,N
1583766895.9,286047004.4,N
1583766915.8,286047004.2,N
1583766935.6,286047000.3,N
1583766955.4,286047002.0,N
1583766975.3,286046999.7,N
1583766995.1,286047000.5,N
1583767015.9,286047002.5,N
1583767035.7,286047001.7,N
1583767055.5,286047002.8,N
1583767075.4,286046999.4,N
1583767095.2,286047000.2,N
1583767115.1,286047001.4,N
1583767116.0,286047001.4,N
1583767135.8,286047001.2,N
1583767155.6,286046998.2,N
1583767175.5,286046999.3,N
1583767195.3,286046997.0,N
1583767215.2,286046999.3,N
1583767235.0,286046994.9,N
1583767235.9,286046994.9,N
1583767255.7,286046996.3,N
1583767275.6,286046997.3,N
1583767295.4,286046996.8,N
1583767315.3,286046997.0,N
1583767335.1,286046998.8,N
1583767336.0,286046998.8,N
1583767355.8,286046996.5,N
1583767375.7,286046997.8,N
1583767395.5,286046995.4,N
1583767415.4,286046995.2,N
1583767435.2,286046994.9,N
1583767455.0,286046994.9,N
1583767455.9,286046994.9,N
1583767475.8,286046996.4,N
1583767495.6,286046995.5,N
1583767515.5,286046996.4,N
1583767535.3,286046995.8,N
1583767555.1,286046997.3,N
1583767575.9,286046997.8,N
1583767595.7,286046998.8,N
1583767615.6,286046997.6,N
1583767635.4,286046999.6,N
1583767655.2,286046998.2,N
1583767675.1,286046998.8,N
1583767676.0,286046998.8,N
1583767695.8,286046998.6,N
1583767715.7,286046996.7,N
1583767735.5,286046995.7,N
1583767755.4,286046997.8,N
1583767775.2,286046999.3,N
1583767795.0,286046997.9,N
1583767795.9,286046997.9,N
1583767815.8,286046995.9,N
1583767835.6,286046996.1,N
1583767855.5,286046995.1,Y
1583767875.3,286046999.4,P
1583767895.1,286046998.9,N
1583767915.9,286046998.8,N
1583767935.7,286046996.5,Y
1583767955.6,286046999.4,P
1583767975.4,286046998.6,P
1583767995.2,286046999.3,N
1583768015.1,286046999.0,N
1583768016.0,286046999.0,N
1583768035.8,286046997.7,Y
1583768055.7,286046998.9,P
1583768075.5,286046997.1,P
1583768095.4,286046998.5,N
1583768115.2,286046997.5,Y
1583768135.0,286046999.3,P
1583768135.9,286046999.3,N
1583768155.8,286046999.2,N
1583768175.6,286046996.7,Y
1583768195.5,286046996.6,P
1583768215.3,286046999.2,N
1583768235.1,286046997.3,N
1583768255.9,286046997.7,N
1583768275.7,286046996.5,Y
1583768295.6,286046998.6,P
1583768315.4,286046998.7,P
1583768335.2,286046999.5,N
1583768355.1,286046997.2,Y
1583768356.0,286046997.2,P
1583768375.8,286046996.5,P
1583768395.6,286046997.1,P
1583768415.5,286047000.9,N
1583768435.3,286046999.3,N
1583768455.2,286046997.0,N
1583768475.9,286046999.5,N
1583768495.7,286046999.1,N
1583768515.6,286046998.6,N
1583768535.4,286046998.4,N
1583768555.3,286046998.5,N
1583768575.1,286046998.8,N
1583768576.0,286046998.8,N
1583768595.8,286046998.3,N
1583768615.7,286046999.4,N
1583768635.5,286046996.9,N
1583768655.3,286046997.1,N
1583768675.2,286046997.7,N
1583768695.0,286046996.6,Y
1583768695.9,286046996.6,P
1583768715.8,286047000.9,N
1583768735.6,286047000.4,N
1583768755.4,286047000.7,N
1583768775.3,286047000.6,N
1583768795.1,286046999.6,N
1583768815.9,286046996.6,N
1583768835.7,286046997.1,N
1583768855.5,286046998.0,N
1583768875.4,286046997.5,N
1583768895.2,286046997.6,N
1583768915.0,286046995.8,N
1583768915.9,286046995.8,N
1583768935.8,286046995.0,N
1583768955.6,286046997.9,N
1583768975.5,286046998.0,N
1583768995.3,286046995.3,N
1583769015.1,286046995.2,N
1583769035.9,286046997.7,N
1583769055.7,286046995.3,N
1583769075.5,286046997.1,N
1583769095.4,286046995.2,N
1583769115.2,286046994.9,N
1583769135.1,286046995.6,N
1583769136.0,286046995.6,N
1583769155.8,286046998.0,N
1583769175.6,286046998.0,N
1583769195.5,286046998.3,N
1583769215.3,286047001.2,N
1583769235.2,286047000.9,N
1583769255.9,286047001.2,N
1583769275.7,286047002.2,N
1583769295.6,286047002.6,N
1583769315.4,286047002.1,N
1583769335.2,286047002.2,N
1583769355.1,286047000.0,N
1583769356.0,286047000.0,N
1583769375.8,286046998.3,N
1583769395.7,286046998.3,N
1583769415.5,286047000.6,N
1583769435.3,286047000.6,N
1583769455.2,286047002.8,N
1583769475.0,286047004.1,N
1583769475.9,286047004.1,N
1583769495.8,286047005.1,N
1583769515.6,286047003.6,N
1583769535.4,286047003.6,N
1583769555.3,286047005.1,N
1583769575.1,286047005.8,N
1583769595.9,286047003.3,N
